www.pogodaiklimat.ru

Погода и климат >> Архив погоды >> Россия >> Иркутская область >> Балаганск


АРХИВ ПОГОДЫ в Балаганске

Время (UTC), дата Ветер
(напр.,м/с)
 
Видим.   Явления Облачность Т
(С)
Тd
(С)
f
(%)
Тe
(С)
Тes
(С)
Комфортность P
(гПа)
Po
(гПа)
Тmin
(С)
Tmax
(С)
R
(мм)
R24
(мм)
S
(см)
09 12.05 В 4 50 км 10/3 600 м
[Sc diur, vesp Ac trans Cs]
+12.5 -2.8 34 +11 +13 1002.8 953.1
12 12.05 ЮВ 1 50 км 10/3 600 м
[Sc diur, vesp Ac trans Cs]
+11.8 -3.1 35 +12 +12 999.1 949.6 +13.1
15 12.05 СЗ 9-14
{15}
н/о пыльный позёмок 10/4 600 м
[Sc diur, vesp Ac trans Cs]
+4.6 -0.1 72 -2 -2 1006.3 955.2
18 12.05 СЗ 4
{14}
н/о {ливн. осадки, метель} 10/6 600 м
[Cb cap Ac trans Cs]
+3.0 -0.2 79 -2 -2 1009.0 957.5
21 12.05 СЗ 3 50 км 10/8 600 м
[Cb cap Ac As]
+2.4 -1.6 75 -2 -2 1010.3 958.6
00 13.05 СЗ 4 50 км 10/4 600 м
[Sc diur, vesp Ac trans Ci fib]
+1.6 -3.2 70 -3 -2 1012.3 960.3 +1.1 0.3
03 13.05 С 4 50 км 6/6 600 м
[Cu med, cong]
+4.8 -4.5 51 +1 +5 1011.8 960.4
06 13.05 С 3 50 км 6/6 600 м
[Cu med, cong]
+6.5 -6.5 39 +4 +9 1010.3 959.2
09 13.05 В 3 50 км 10/5 600 м
[Cu med, cong Cs]
+6.8 -6.0 40 +5 +7 1008.8 957.9
12 13.05 С 1 50 км 6/3 600 м
[Sc diur, vesp Cs]
+7.9 -7.9 32 +8 +8 1008.3 957.6 +8.5
15 13.05 СЗ 3 н/о 6/3 600 м
[Sc diur, vesp Ac trans Cs]
+2.2 -6.7 52 -1 -1 1009.7 957.9
18 13.05 З 1 н/о 10/3 600 м
[Sc Ac trans Cs]
+0.7 -6.6 58 -1 -1 1009.7 957.6
21 13.05 СЗ 4 50 км 10/3 600 м
[Sc Ac trans Cs]
+1.1 -5.1 63 -4 -4 1009.7 957.7
00 14.05 СЗ 3 50 км 10/3 600 м
[Sc Ac As]
+3.6 -4.3 56 0 +1 1010.4 958.8 +0.3
03 14.05 С 3 50 км 10/3 600 м
[Sc Ac As]
+6.1 -5.9 42 +4 +6 1009.9 958.8
06 14.05 СЗ 4 50 км 10/4 600 м
[Cb cap Ac As Cs]
+9.0 -5.7 35 +7 +10 1008.8 958.3
09 14.05 С 4 50 км 10/5 600 м
[Cb cap Ac As Cs]
+9.1 -6.8 32 +7 +8 1008.6 958.1
12 14.05 С 3 50 км 10/4 600 м
[Cu Sc Ac trans Cs]
+7.9 -7.5 33 +6 +6 1009.2 958.5 +9.7
15 14.05 СЗ 2 н/о ясно +2.3 -9.6 41 0 0 1011.1 959.2
18 14.05 З 3 н/о ясно -1.8 -10.6 51 -6 -6 1011.2 958.6
21 14.05 З 2 50 км ясно -4.0 -10.7 60 -8 -8 1011.1 958.1
00 15.05 СЗ 1 50 км 4/0
[Cs]
+1.4 -7.9 50 0 +4 1009.9 957.9 -4.7
03 15.05 СЗ 2 50 км 4/1 600 м
[Cu hum Cs]
+8.3 -9.8 27 +7 +18 опасность
простуды
1007.1 956.5
06 15.05 С 3 50 км 6/3 600 м
[Cu med, cong Ac lent Cs]
+9.9 -8.1 27 +8 +15 1004.6 954.4
09 15.05 С 5 50 км 8/4 600 м
[Cu Sc Ac trans Ci fib]
+10.9 -8.1 26 +9 +10 1003.6 953.7
12 15.05 С 3 50 км 10/4 600 м
[Sc Ac As Ci fib]
+9.4 -9.0 26 +8 +8 1004.8 954.5 +11.3
15 15.05 СЗ 3 н/о 9/4 600 м
[Sc Ac trans]
+4.6 -7.6 41 +2 +2 1006.8 955.6
18 15.05 СЗ 3 н/о 10/4 600 м
[Sc Ac trans Ci fib]
+3.6 -9.0 39 +1 +1 1008.5 957.0
21 15.05 З 3 50 км 8/4 600 м
[Sc Ac trans Ci fib]
+1.9 -8.5 46 -2 -2 1010.2 958.3
00 16.05 СЗ 4 50 км 4/0
[Ac trans]
+4.9 -6.6 43 +2 +3 1010.9 959.5 +1.3
03 16.05 С 4 50 км 6/4 600 м
[Cb cap Ac trans]
+8.7 -6.1 34 +6 +10 1010.6 959.9
06 16.05 С 7-12
{13}
50 км {ливн. осадки} 8/5 600 м
[Cb cap Ci fib]
+8.4 -4.7 39 +5 +7 1011.4 960.6
09 16.05 С 4
{12}
50 км 4/3 600 м
[Sc diur, vesp Ci fib]
+10.3 -6.2 31 +8 +12 1011.7 961.3
12 16.05 СЗ 4
{11}
50 км 3/3 600 м
[Sc diur, vesp]
+8.7 -5.4 36 +6 +7 1013.7 962.9 +11.0 0.0
15 16.05 З 2 н/о ясно +2.7 -6.2 52 0 0 1016.9 964.8
18 16.05 З 3 н/о ясно +1.2 -5.8 60 -3 -3 1017.8 965.4
21 16.05 З 3 50 км 4/0
[Cs]
-1.0 -5.3 73 -6 -6 1019.0 966.1
00 17.05 З 3 50 км 8/0
[Ac trans Cs]
+2.6 -3.3 65 -1 +1 1019.7 967.5 -1.4
03 17.05 З 2 50 км 8/3 600 м
[Sc diur, vesp Ac trans Ci fib]
+9.3 -4.6 37 +8 +14 1018.2 967.3
06 17.05 С 4 50 км 8/6 600 м
[Sc diur, vesp Ci fib]
+11.3 -10.4 21 +10 +13 1017.1 966.5
09 17.05 СЗ 3
{12}
4000 м 8/4 600 м
[Cb cap Cs]
+9.3 -5.2 35 +8 +11 1018.1 967.2
12 17.05 СЗ 3 50 км 8/5 600 м
[Cb cap Ci fib]
+9.0 -8.2 29 +7 +8 1018.2 967.2 +11.8
15 17.05 З 3 н/о 8/5 600 м
[Sc diur, vesp Ac trans Cs]
+4.4 -8.2 39 +2 +2 1020.6 968.7
18 17.05 З 2 н/о 10/3 600 м
[Sc diur, vesp As trans Cs]
+1.5 -9.1 45 -1 -1 1022.3 969.7
21 17.05 З 3 50 км 10/3 600 м
[Sc Ac trans Cs]
+1.5 -7.9 50 -2 -2 1022.8 970.2
00 18.05 З 3 50 км 10/0
[Ac As]
+3.5 -6.2 49 0 +1 1024.0 971.7 +0.5
03 18.05 С 4 50 км 10/3 600 м
[Cu med, cong Ac As Cs]
+10.2 -6.2 31 +8 +11 1023.2 972.2
06 18.05 С 4 50 км 10/6 600 м
[Cb cap Cs]
+12.0 -8.3 23 +11 +14 1022.1 971.4
09 18.05 С 3 50 км 10/6 600 м
[Cb cap Cs]
+12.4 -9.4 21 +12 +14 1020.8 970.2
12 18.05 Ю 1 50 км 10/3 600 м
[Cu Sc Ac trans Cs]
+9.5 -7.6 29 +10 +10 1021.4 970.4 +12.8
15 18.05 З 1 н/о 10/4 600 м
[Sc diur, vesp Ac trans Cs]
+5.1 -8.5 37 +5 +5 1023.2 971.2
18 18.05 З 1 н/о 8/3 600 м
[Sc diur, vesp Cs]
-0.3 -9.7 49 -2 -2 1024.3 971.3
21 18.05 З 2 50 км 3/0
[Cs]
-2.5 -9.8 57 -6 -6 1025.0 971.5
00 19.05 З 1 50 км 10/0
[Cs]
+2.8 -5.6 54 +2 +5 1024.3 971.9 -3.3
03 19.05 В 3 50 км 4/3 600 м
[Cu hum Ci fib]
+7.7 -6.6 36 +6 +13 1021.9 970.5
06 19.05 В 5 50 км 3/3 600 м
[Cu hum Ci fib]
+13.1 -7.3 23 +12 +17 1018.3 968.0

 

Местоположение метеостанции Балаганск (Иркутская область, Россия): широта 54.00 долгота 103.00 высота над уровнем моря 427 м.

В архиве по умолчанию представлена погода в Балаганске за последнюю неделю. Архивные данные за месяц целиком и за предыдущие месяцы, начиная с января 2011 года, Вы можете получить, выбрав интересующий диапазон дат из раскрывающегося списка и нажав кнопку "Ввод!".


*Определитесь, кто Вы:
робот инопланетянин человек

Внимание! Время в таблицах - всемирное. Для получения местного времени необходимо прибавить поправку, которая равна 8 ч.

Смотрите также архив погоды в соседних городах и на ближайших метеорологических станциях:

Погода в Заларях (Иркутская область, Россия) (60 км)
Погода в Зиме (Иркутская область, Россия) (66 км)
Погода в Черемхово (Иркутская область, Россия) (91 км)
Погода в Инге (Иркутская область, Россия) (136 км)
Погода в Сараме (Иркутская область, Россия) (139 км)
Погода в Жигалове (Иркутская область, Россия) (162 км)
Погода в Тулуне (Иркутская область, Россия) (169 км)
Погода в Усть-Ордынском (Иркутская область, Россия) (174 км)
Погода в Ангарск (Иркутская область, Россия) (177 км)
Погода в Качуге (Иркутская область, Россия) (190 км)

Пояснения к столбцам:

Ветер - указаны скорость ветра в м/с - средняя за 10 мин, порывы в срок и между сроками (в фигурных скобках) и направление, откуда дует ветер: С - северный, СВ - северо-восточный, В - восточный, ЮВ - юго-восточный, Ю - южный, ЮЗ - юго-западный, З - западный, СЗ - северо-западный.
Видимость - горизонтальная дальность видимости в метрах или километрах. При видимости от 1 до 10 км при отсутствии осадков обычно наблюдается дымка, при ухудшении видимости до 1 км и менее - туман. В сухую погоду видимость может ухудшаться дымом, пылью или мглою.
Явления - указаны атмосферные явления, наблюдавшиеся в срок или в последний час перед сроком; фигурными скобками обозначены явления, наблюдавшиеся между сроками (за 1-3 часа до срока); квадратными скобками обозначены град или гололедные отложения с указанием их диаметра в мм.
Облачность - указаны через наклонную черту общая и нижняя облачность в баллах и высота нижней границы облаков в метрах; квадратными скобками обозначены формы облаков: Ci - перистые, Cs - перисто-слоистые, Cc - перисто-кучевые, Ac - высококучевые, As - высокослоистые, Sc - слоисто-кучевые, Ns - слоисто-дождевые, Cu - кучевые, Cb - кучево-дождевые. Подробнее классификацию облаков см. в Атласе облаков (PDF).
T - Температура воздуха - температура, измеренная на высоте 2 м над землей.
Td - Температура точки росы - температура, при понижении до которой содержащийся в воздухе водяной пар достигнет насыщения.
f - Относительная влажность воздуха - влажноcть воздуха, измеренная на высоте 2 м над землей.
Te - Эффективная температура - температура, которую ощущает одетый по сезону человек в тени. Характеристика душности погоды. При расчете учитывается влияние влажности воздуха и скорости ветра на теплоощущения человека.
Tes - Эффективная температура на солнце - температура, которую ощущает человек, с поправкой на солнечный нагрев. Характеристика знойности погоды. Зависит от высоты солнца над горизонтом, облачности и скорости ветра. Ночью, в пасмурную погоду, а также при ветре 12 м/с и более поправка равна нулю.
P - Атмосферное давление - приведенное к уровню моря атмосферное давление.
Po - Атмосферное давление - измеренное на уровне метеостанции атмосферное давление.
Tmin - Минимальная температура - минимум температуры воздуха на высоте 2 м над землей.
Tmax - Максимальная температура - максимум температуры воздуха на высоте 2 м над землей.
R - Количество осадков - Количество выпавших осадков за период времени, мм. При наведении курсора мыши на число - период времени, за который выпало указанное количество осадков.
R24 - Количество осадков - Количество выпавших осадков за 24 часа, мм.
S - Снежный покров - Высота снежного покрова, см. При наведении курсора мыши на число - состояние снежного покрова и степень покрытия местности в баллах.